STARLINK-4182

decayed
NORAD ID: 53281 Int'l Des: 2022-086 Owner: SPXS Country: US Constellation: starlink
LEOCIRCULAR
Gruppe

Über STARLINK-4182

Beschreibung wird geladen...

Höhenverlauf

Altitude vs Time

uPlot chart will show altitude changes over time

Zweizeiliger Elementsatz

1 53281U 22086AR 24361.45395924 .17527952 12420-4 29211-3 0 9993
2 53281 53.1954 330.7076 0010686 224.5660 225.7301 16.47231836135156
Epoch: 26. Dez. 2024 • Age: 6350 hours

Aktueller Status

Position data unavailable
Startdatum 24. Juli 2022
Alter 3.1 years
Verglühungsdatum 26. Dez. 2024
Typ internet

Technische Details

Klassifizierung Payload
Masse 297.00 kg
Trockenmasse 275.00 kg
Gesamtmasse 297.00 kg
Länge 0.20 m
Durchmesser 2.80 m
Spannweite 9.00 m
Form Box + pan
Hersteller SPXS
Bus-Typ Starlink
Phasenstatus Unknown Transfer Status
Besitzer/Staat SPXS/US

Große Konstellationen

Loading constellations...